Temp_Advection
nan nan nan nan nan nan nan nan nan nan nan nan nan nan nan nan nan nan nan nan nan nan nan nan nan nan nan nan nan nan nan nan nan nan nan nan nan nan nan nan nan nan nan
nan 0 0 0 0 0 -0 0 0 0 1 0 0 0 -0 -0 -0 0 -0 -0 0 -0 -0 0 -0 0 0 0 0 0 0 0 0 0 0 -0 -0 0 0 0 0 0 nan
nan -0 0 0 0 -0 -0 -0 -0 -0 0 -0 -0 -0 -0 -0 0 0 -0 -0 0 0 0 0 0 0 0 -0 0 0 1 1 -0 -0 0 -0 -0 0 0 0 0 -0 nan
nan 1 0 0 0 -0 -0 -1 -1 -0 -1 -0 -0 0 0 0 0 -0 -0 0 0 0 0 0 0 0 0 0 0 0 0 1 1 0 -0 0 1 0 -0 0 0 0 nan
nan 1 0 1 0 0 0 -0 0 0 0 0 0 0 0 -0 -0 -0 0 -0 -0 0 0 0 0 0 0 0 0 0 0 0 1 1 0 0 0 0 0 -0 -0 0 nan
nan 1 1 0 0 0 -0 0 0 0 0 0 1 0 0 -0 0 0 0 0 0 0 0 0 0 0 0 -0 0 0 0 0 0 1 0 -0 -0 0 0 0 0 -0 nan
nan 1 1 1 0 -1 0 0 1 1 1 0 0 0 0 0 0 0 0 0 0 0 -0 -0 0 0 0 -0 0 0 0 0 1 0 -0 0 0 0 0 0 0 0 nan
nan 1 1 1 0 -0 0 1 1 1 0 0 1 0 0 0 0 0 0 0 0 0 0 0 0 0 0 0 1 0 -0 -0 0 0 -0 -0 0 0 0 0 0 0 nan
nan 1 1 1 0 -0 -0 0 1 0 0 1 0 0 0 0 0 0 0 0 0 0 0 0 0 0 0 0 0 0 -0 0 0 -0 -0 -0 0 0 0 1 0 0 nan
nan 0 0 0 0 -0 0 1 1 1 0 0 0 0 0 0 0 0 0 0 0 0 0 0 0 0 0 0 0 0 -0 0 0 0 0 0 0 0 0 0 0 0 nan
nan 0 0 1 1 1 1 1 2 0 0 0 0 0 0 0 0 0 0 0 0 0 0 0 0 0 0 0 0 -0 -0 -0 -0 0 0 0 0 0 0 0 0 0 nan
nan 0 0 1 1 1 0 1 0 -0 0 0 0 0 0 0 0 0 0 0 0 0 0 0 0 -0 -0 0 -0 -0 0 0 0 0 0 0 0 0 0 0 0 0 nan
nan 0 0 0 0 -0 -0 -0 -0 0 0 0 0 0 0 0 0 1 1 1 1 0 0 0 0 -0 -0 0 0 -0 0 0 0 0 0 0 0 0 0 0 0 0 nan
nan 1 0 0 -0 -1 -1 -0 -0 0 0 0 0 0 1 1 1 1 1 1 0 0 0 0 -0 -0 -0 -0 0 0 0 0 0 0 0 0 0 0 0 0 0 0 nan
nan 1 0 0 -0 -1 -1 -0 0 0 0 0 0 0 1 1 1 1 1 0 0 0 0 0 0 -0 -0 -0 -0 -0 0 0 0 0 0 0 0 0 0 0 0 0 nan
nan 0 1 1 0 -0 -1 -0 0 0 0 0 0 1 1 1 1 1 0 0 0 0 0 0 -0 -0 -0 -0 -0 0 0 0 0 0 0 0 0 0 0 0 0 0 nan
nan -0 0 1 1 -0 -0 0 0 0 1 1 1 1 1 1 1 0 0 0 0 0 0 -0 -0 -0 -0 -0 0 0 0 0 0 0 0 0 0 -0 -0 -0 0 0 nan
nan -1 -0 0 1 1 0 -0 0 1 1 1 1 1 1 1 1 0 0 0 0 0 0 0 -0 0 0 0 0 0 0 0 0 0 0 -0 -0 0 0 0 0 0 nan
nan -2 -1 0 1 1 0 -0 0 1 1 1 1 1 1 1 0 0 0 1 0 0 0 -0 -0 0 0 0 0 0 0 0 0 0 -0 -0 -0 0 0 0 -0 0 nan
nan -1 -1 0 1 1 0 -0 -0 1 1 1 1 1 1 1 1 0 0 1 0 0 -0 -0 -0 -0 0 0 0 0 0 0 -0 0 0 0 0 -0 0 0 0 0 nan
nan -0 -0 0 1 -0 -1 -0 -0 1 1 1 1 1 1 1 0 0 0 0 0 -0 -0 -0 -0 -0 -0 0 0 0 -0 0 0 0 0 0 0 -0 -0 0 0 0 nan
nan 0 0 -0 -0 -0 0 0 1 1 1 1 1 1 1 1 0 0 -0 0 -0 -0 -0 -0 -0 -0 0 0 0 -0 0 0 0 0 0 0 0 -0 -0 0 0 0 nan
nan 0 0 -0 -0 0 0 0 0 0 1 1 1 1 1 1 0 -0 0 0 -0 -1 -0 -0 -0 0 0 -0 0 0 0 0 0 0 0 0 -0 0 0 0 0 0 nan
nan -0 0 -0 -0 -0 0 0 0 1 1 1 0 0 1 1 0 -0 -0 -1 -1 -0 -0 -0 0 0 -0 0 0 0 0 -0 0 0 0 -0 0 0 0 0 0 0 nan
nan -0 0 -0 -0 -0 0 0 0 1 1 0 0 0 0 1 0 -0 -1 -0 -0 -0 -0 0 0 0 0 0 0 0 0 0 0 0 0 0 0 0 -0 0 0 0 nan
nan nan nan nan nan nan nan nan nan nan nan nan nan nan nan nan nan nan nan nan nan nan nan nan nan nan nan nan nan nan nan nan nan nan nan nan nan nan nan nan nan nan nan
Wind_Speed
17 12 14 11 11 13 16 19 20 19 19 19 17 15 14 13 13 13 14 14 14 14 15 16 15 14 16 17 17 18 19 21 19 21 23 20 15 20 16 13 13 11 13
25 18 17 12 14 14 15 17 19 19 19 18 16 14 13 13 11 12 16 16 16 17 18 20 20 21 22 23 23 22 21 23 23 23 22 17 12 14 14 11 12 16 16
28 21 17 14 15 17 18 16 17 17 17 18 17 19 19 17 17 18 18 19 19 20 22 23 23 25 25 27 28 27 25 24 22 22 19 11 10 7 9 10 10 12 12
25 26 18 19 14 17 18 20 22 21 21 21 21 20 20 18 15 18 20 20 21 21 22 23 24 25 26 27 26 25 24 23 23 23 24 21 20 12 11 10 9 7 7
16 18 18 20 14 15 16 18 20 22 22 23 23 24 22 22 22 20 19 19 21 22 23 24 25 25 25 25 25 24 23 22 23 22 20 18 20 21 20 17 16 12 15
19 17 20 19 21 17 12 16 18 19 19 20 20 20 20 18 18 19 18 20 21 22 23 24 23 23 23 23 23 23 23 22 24 21 18 22 21 21 22 19 16 16 19
20 21 20 22 20 20 18 16 19 20 18 19 18 19 18 17 17 18 19 21 22 23 23 24 24 25 25 26 26 25 24 23 23 19 19 19 22 24 17 14 15 16 10
9 16 20 21 22 21 18 17 19 19 20 18 21 17 16 16 18 19 20 21 22 22 23 23 23 24 24 23 22 20 19 18 16 15 18 20 22 23 18 15 15 11 10
6 9 14 19 23 25 20 19 20 20 20 19 17 16 16 17 18 19 19 20 22 23 23 22 21 20 19 19 18 17 16 14 13 13 15 17 19 17 18 20 15 13 9
5 8 9 13 20 25 29 30 27 22 20 18 17 16 16 16 17 19 20 22 23 24 22 21 20 19 18 16 16 17 17 16 15 14 16 17 20 20 18 16 14 14 14
6 5 8 12 16 21 25 27 29 28 24 21 18 17 16 17 19 21 22 23 24 23 22 21 20 19 17 15 16 16 16 15 15 15 15 14 13 13 12 12 12 14 14
7 5 6 10 15 18 22 24 25 22 20 18 17 17 17 19 21 22 23 23 22 23 21 21 20 19 17 16 16 16 15 14 13 12 12 12 11 11 12 13 14 15 14
7 4 7 11 13 16 19 22 22 20 19 18 17 17 18 21 21 22 22 22 20 20 19 19 19 19 18 17 17 16 14 13 13 12 12 11 12 12 11 12 13 13 13
14 8 10 12 14 17 20 21 21 20 19 18 18 18 20 20 19 18 18 17 16 16 17 17 19 19 19 17 15 14 14 13 12 12 12 11 10 10 9 9 8 7 7
18 16 15 17 18 20 22 22 21 20 20 19 18 19 20 19 19 17 16 15 15 15 16 16 15 14 15 15 13 12 12 12 11 10 10 8 9 8 7 7 6 6 5
20 18 19 18 20 21 23 23 23 23 21 20 20 20 20 19 17 14 13 14 14 13 13 12 11 11 11 11 11 9 9 9 9 8 7 7 7 5 5 5 5 7 7
21 21 19 21 22 22 24 25 24 22 21 20 20 19 18 17 15 13 12 13 12 12 10 9 10 10 8 8 9 9 7 6 6 6 6 6 5 6 7 8 7 7 7
20 21 21 20 20 22 25 25 24 23 21 21 19 18 18 15 15 14 13 13 12 11 10 10 9 9 8 8 7 7 6 7 6 6 5 6 6 7 8 8 8 8 8
22 21 20 19 18 22 27 26 25 23 22 20 19 17 16 15 16 15 14 14 12 12 11 11 9 9 8 7 6 5 6 5 5 6 7 7 7 6 7 8 7 8 9
18 17 16 20 17 21 27 25 23 22 21 19 18 17 15 16 16 15 14 13 13 12 12 11 11 10 8 7 5 5 5 5 6 7 7 7 8 7 7 7 6 6 8
18 14 12 13 14 21 22 23 22 21 19 17 17 17 16 15 15 15 15 14 14 14 13 12 11 9 9 8 6 5 6 6 6 6 7 8 8 8 7 6 6 7 8
22 14 9 10 14 17 18 20 19 17 17 16 16 16 15 16 17 16 16 16 15 15 14 13 13 12 11 9 7 7 7 7 6 7 8 9 9 9 8 7 7 7 8
19 14 8 11 13 15 17 17 16 16 16 15 15 14 15 16 17 18 18 18 17 16 16 16 15 13 12 10 10 9 8 7 7 8 9 10 9 9 9 8 8 7 8
17 14 9 8 10 11 13 14 16 15 15 13 12 13 16 17 18 19 19 19 19 19 19 18 17 14 13 12 12 11 10 10 9 9 10 10 9 9 10 10 9 9 10
17 14 11 10 9 9 10 13 15 14 14 12 10 12 15 17 18 20 20 20 20 19 19 17 16 16 15 12 12 12 12 12 11 12 12 11 11 11 10 10 10 11 11
16 13 10 10 9 7 7 13 14 15 16 14 15 14 16 17 17 19 20 21 21 21 21 20 19 18 17 15 15 14 13 13 14 13 13 13 12 12 11 12 12 13 13
Wind_Direction
226 217 243 236 210 208 209 214 221 224 220 216 214 214 225 226 229 231 229 235 242 245 254 255 251 255 259 265 269 270 268 274 281 276 290 295 282 274 278 276 276 276 294
236 220 226 239 222 207 210 217 224 226 226 220 222 213 223 225 236 244 250 250 251 251 249 257 261 266 267 272 270 271 271 271 274 277 284 296 302 281 256 254 269 282 289
230 210 212 229 226 216 209 208 212 213 214 213 212 218 222 227 229 235 251 252 259 262 266 269 270 273 272 275 276 276 272 273 274 275 270 279 265 277 270 278 279 287 299
225 216 205 215 225 227 218 218 220 219 220 223 227 233 237 242 245 236 253 264 265 266 268 271 274 276 278 279 279 278 277 275 267 266 267 258 258 266 271 265 289 300 310
241 218 198 213 221 225 218 222 226 228 232 233 236 240 242 245 248 254 257 262 267 269 272 274 277 277 276 275 276 277 279 275 268 258 257 261 264 249 256 265 268 257 298
229 231 222 222 222 224 240 226 230 230 227 232 232 233 235 239 247 253 259 265 270 274 276 276 276 275 275 274 275 274 273 270 268 268 257 256 260 259 258 257 260 284 300
235 223 217 209 217 232 238 237 234 228 228 223 225 227 233 241 248 259 267 272 275 277 277 277 275 274 274 275 275 273 271 269 267 261 262 258 258 268 255 253 271 291 275
257 230 216 212 215 229 229 228 225 225 219 227 227 231 241 252 263 270 273 274 274 273 276 277 276 274 274 272 271 270 267 269 270 262 255 260 253 262 252 257 273 260 272
246 233 220 213 214 228 232 235 225 224 224 224 230 240 250 260 267 270 270 272 273 274 277 277 276 275 272 270 267 265 268 264 258 260 256 258 261 251 254 269 260 241 242
277 264 247 226 227 231 230 234 246 232 227 232 238 246 256 264 268 273 276 277 276 276 276 274 272 270 268 267 264 261 261 259 254 250 247 248 254 262 268 269 260 253 242
326 271 245 230 225 225 216 213 213 216 222 231 241 249 257 267 275 279 280 278 276 275 273 272 270 266 264 263 263 260 262 261 264 259 257 257 257 264 264 262 259 261 256
313 283 238 210 202 208 213 207 209 214 220 231 240 253 267 276 283 283 281 278 274 273 270 269 268 265 261 258 258 260 258 258 256 259 257 256 255 258 261 261 263 263 266
299 259 221 209 209 205 203 202 207 213 222 231 242 257 269 277 279 278 277 275 271 269 268 266 266 264 258 252 248 251 253 251 248 249 250 253 254 259 261 265 266 268 264
303 258 234 220 207 210 211 211 215 222 230 237 250 263 274 279 278 275 271 267 267 269 269 272 269 258 252 249 246 243 244 244 245 243 245 251 254 257 260 258 258 259 258
279 252 235 222 213 214 217 221 227 232 238 247 258 268 275 277 274 269 266 265 270 271 271 268 263 254 243 241 238 237 241 243 243 243 240 237 241 251 257 256 259 251 253
280 273 251 237 224 220 223 224 229 234 242 251 261 269 275 274 270 259 261 265 263 265 263 256 248 244 236 233 231 230 234 238 237 231 231 236 248 260 276 274 274 271 274
285 271 259 238 232 229 233 232 234 240 248 253 261 269 268 268 260 251 252 248 258 257 244 237 233 228 222 222 223 221 219 215 224 228 235 248 263 283 284 287 286 283 281
304 278 264 244 235 229 235 234 233 236 241 247 255 259 260 254 240 235 238 246 246 248 233 228 213 211 211 200 194 203 205 211 225 237 248 255 264 269 271 277 280 285 282
293 290 263 250 241 229 235 229 228 233 238 245 252 254 255 251 236 231 230 239 237 231 228 221 212 208 201 202 209 209 221 229 232 244 247 255 264 273 271 280 285 288 281
304 292 264 250 240 219 227 218 225 231 240 248 252 254 251 252 236 231 230 235 232 228 233 221 206 202 207 212 214 218 234 242 248 251 259 263 269 287 283 278 286 286 280
312 300 261 250 230 219 215 215 225 233 243 247 249 250 252 245 233 230 230 235 236 233 227 215 207 213 221 219 225 235 241 247 253 267 273 280 284 286 282 275 278 275 286
326 314 264 237 223 223 218 220 226 235 241 243 246 249 247 235 228 226 228 231 229 228 217 210 215 221 224 231 235 244 250 255 261 270 276 281 289 292 293 288 281 278 277
321 315 275 250 234 220 213 222 232 235 237 238 239 239 239 234 227 226 226 226 224 217 214 217 222 227 233 239 244 246 250 259 267 274 279 285 287 288 287 285 285 279 275
304 302 278 249 236 227 226 230 235 233 232 230 238 249 243 234 227 225 224 226 224 218 219 222 227 234 240 245 251 260 267 275 278 282 282 283 282 282 283 286 282 280 277
296 291 271 254 251 250 250 246 243 234 227 226 241 259 252 243 234 231 230 228 224 226 229 233 237 242 247 253 256 260 267 273 276 280 283 281 276 276 281 282 283 282 279
298 283 254 229 224 241 258 268 251 243 229 225 229 238 248 242 238 233 231 229 224 228 230 232 238 244 250 252 257 260 264 268 272 275 278 272 271 277 281 283 284 284 282
Height
1514 1516 1518 1520 1522 1525 1527 1527 1530 1533 1536 1539 1540 1542 1544 1548 1551 1552 1553 1554 1555 1556 1556 1556 1556 1557 1558 1558 1558 1558 1556 1555 1555 1553 1553 1552 1551 1551 1550 1550 1549 1548 1545
1509 1512 1514 1517 1519 1521 1524 1526 1527 1530 1532 1535 1538 1540 1543 1544 1548 1549 1549 1550 1551 1553 1552 1552 1552 1552 1552 1553 1553 1552 1551 1551 1551 1550 1549 1547 1548 1546 1545 1545 1545 1544 1541
1504 1508 1510 1513 1515 1517 1519 1522 1525 1527 1530 1532 1535 1537 1538 1540 1542 1544 1545 1546 1546 1548 1548 1548 1548 1547 1547 1546 1547 1547 1546 1545 1545 1546 1547 1546 1543 1542 1542 1542 1541 1540 1539
1498 1502 1506 1507 1511 1513 1515 1518 1521 1523 1526 1528 1531 1533 1536 1537 1538 1539 1540 1542 1542 1543 1543 1544 1543 1542 1541 1541 1541 1541 1540 1540 1540 1540 1540 1541 1541 1540 1538 1538 1538 1538 1537
1495 1497 1501 1504 1508 1510 1512 1514 1518 1521 1523 1526 1528 1530 1532 1533 1534 1535 1536 1538 1537 1537 1538 1538 1538 1537 1536 1536 1535 1534 1534 1534 1534 1534 1535 1535 1535 1534 1534 1533 1535 1535 1535
1493 1496 1499 1502 1503 1507 1509 1510 1514 1517 1519 1521 1524 1526 1528 1530 1531 1532 1532 1533 1533 1532 1532 1532 1532 1532 1531 1531 1530 1529 1529 1530 1529 1529 1530 1530 1530 1530 1530 1530 1531 1530 1531
1487 1490 1495 1498 1499 1502 1505 1508 1510 1515 1516 1519 1520 1524 1525 1526 1528 1528 1528 1529 1528 1527 1526 1526 1526 1526 1526 1525 1524 1524 1524 1523 1523 1523 1524 1525 1526 1526 1524 1524 1526 1526 1526
1485 1486 1490 1494 1494 1498 1500 1504 1508 1509 1515 1512 1519 1520 1521 1522 1523 1524 1524 1524 1523 1522 1521 1521 1521 1520 1520 1520 1518 1519 1518 1518 1518 1518 1519 1520 1520 1521 1521 1521 1523 1522 1523
1483 1486 1487 1488 1489 1492 1496 1500 1504 1507 1510 1513 1515 1515 1517 1517 1519 1519 1520 1519 1518 1517 1516 1515 1515 1515 1515 1514 1514 1515 1515 1514 1515 1515 1514 1515 1516 1516 1516 1517 1518 1519 1519
1481 1481 1481 1482 1484 1486 1489 1495 1500 1506 1506 1509 1511 1512 1512 1514 1515 1515 1514 1513 1513 1512 1511 1511 1510 1510 1510 1510 1510 1511 1512 1511 1511 1511 1511 1510 1511 1511 1511 1513 1514 1514 1516
1480 1479 1478 1478 1480 1483 1485 1487 1493 1499 1501 1504 1508 1509 1508 1509 1510 1510 1508 1508 1507 1506 1506 1506 1506 1506 1506 1506 1506 1508 1508 1507 1506 1506 1506 1506 1507 1506 1508 1508 1509 1510 1511
1480 1479 1478 1478 1479 1482 1483 1485 1490 1494 1497 1501 1503 1504 1505 1505 1505 1505 1504 1503 1502 1501 1500 1501 1502 1502 1502 1502 1503 1503 1504 1503 1503 1503 1504 1504 1503 1503 1505 1505 1505 1505 1505
1480 1478 1478 1478 1479 1480 1483 1484 1487 1490 1493 1496 1498 1498 1499 1500 1499 1499 1497 1497 1497 1496 1495 1496 1497 1497 1498 1498 1498 1499 1500 1499 1499 1499 1501 1501 1500 1500 1500 1501 1501 1502 1502
1479 1478 1478 1478 1478 1480 1481 1483 1485 1488 1490 1491 1492 1492 1494 1494 1494 1492 1492 1492 1493 1492 1492 1491 1491 1492 1493 1493 1494 1495 1495 1497 1496 1495 1496 1497 1497 1498 1498 1498 1498 1498 1498
1475 1475 1475 1475 1475 1475 1477 1479 1481 1483 1486 1487 1487 1488 1488 1488 1488 1487 1489 1490 1488 1488 1488 1488 1487 1487 1489 1491 1491 1491 1492 1493 1493 1493 1493 1493 1495 1495 1495 1497 1496 1497 1495
1472 1471 1471 1472 1473 1472 1472 1474 1477 1479 1482 1482 1483 1483 1483 1483 1482 1483 1484 1487 1486 1484 1485 1484 1485 1486 1487 1488 1489 1488 1489 1490 1491 1491 1491 1491 1491 1491 1493 1495 1493 1495 1492
1468 1467 1466 1466 1468 1468 1468 1470 1472 1474 1476 1477 1478 1478 1479 1478 1479 1479 1480 1484 1484 1483 1482 1482 1482 1485 1485 1486 1487 1486 1486 1487 1490 1490 1490 1490 1489 1490 1489 1492 1491 1491 1491
1464 1462 1461 1462 1463 1464 1464 1465 1467 1470 1472 1473 1474 1474 1474 1475 1476 1478 1480 1480 1480 1482 1480 1480 1481 1482 1483 1484 1485 1486 1486 1486 1487 1489 1490 1489 1487 1489 1489 1488 1488 1487 1487
1460 1457 1457 1457 1458 1459 1458 1459 1462 1465 1467 1468 1469 1469 1469 1470 1472 1474 1475 1476 1477 1480 1479 1479 1480 1481 1482 1483 1485 1485 1487 1486 1485 1488 1489 1487 1486 1486 1487 1486 1485 1483 1485
1457 1453 1452 1451 1452 1453 1452 1455 1456 1459 1461 1463 1464 1464 1465 1467 1468 1470 1472 1474 1476 1476 1477 1478 1478 1479 1481 1483 1483 1484 1485 1485 1485 1486 1486 1485 1484 1484 1484 1483 1481 1482 1483
1451 1447 1446 1446 1446 1447 1448 1451 1453 1455 1457 1459 1460 1461 1462 1464 1465 1467 1469 1471 1472 1474 1475 1476 1476 1478 1481 1482 1483 1483 1484 1484 1484 1484 1483 1482 1482 1482 1481 1479 1478 1481 1481
1446 1444 1443 1442 1442 1444 1446 1448 1450 1452 1453 1455 1456 1457 1458 1460 1462 1464 1467 1468 1469 1471 1472 1473 1475 1478 1479 1481 1481 1481 1482 1482 1481 1481 1481 1480 1480 1479 1479 1478 1478 1478 1478
1446 1443 1441 1440 1440 1441 1444 1445 1447 1449 1450 1452 1453 1454 1456 1457 1460 1461 1463 1465 1466 1467 1470 1472 1474 1477 1478 1478 1479 1480 1480 1479 1479 1479 1479 1478 1477 1477 1477 1476 1476 1475 1475
1444 1442 1440 1439 1440 1440 1442 1443 1445 1446 1448 1449 1450 1451 1453 1455 1456 1458 1460 1461 1463 1465 1468 1470 1472 1474 1475 1476 1477 1477 1477 1477 1476 1476 1476 1475 1475 1474 1475 1473 1473 1473 1472
1441 1439 1439 1439 1439 1440 1441 1442 1443 1444 1446 1447 1448 1449 1451 1452 1453 1455 1457 1459 1461 1464 1467 1469 1470 1471 1472 1474 1474 1474 1474 1474 1474 1473 1472 1472 1472 1472 1471 1470 1470 1470 1470
1439 1437 1436 1437 1438 1438 1439 1440 1441 1442 1443 1443 1444 1447 1448 1449 1450 1452 1454 1456 1459 1461 1463 1465 1467 1468 1469 1470 1471 1471 1471 1471 1471 1470 1469 1469 1469 1469 1468 1468 1467 1466 1466